| time (UTC) | temp C | wind direction | speed KPH | gust KPH | rain 1hr cm | rain 24hr cm | rain mn cm | humidity % | barometer mb |
| 20260504080718 | 5 | 320 | 6.4 | 9.7 | 0.00 | 0.00 | 0.00 | 88 | 1005.0 |
| 20260504050718 | 6 | 60 | 4.8 | 8.0 | 0.00 | 0.00 | 0.00 | 77 | 1005.5 |
| 20260504044717 | 5 | 63 | 3.2 | 9.7 | 0.00 | 0.00 | 0.00 | 86 | 1005.8 |
| 20260504042717 | 5 | 57 | 4.8 | 6.4 | 0.00 | 0.00 | 0.00 | 78 | 1005.9 |
| 20260504040718 | 5 | 26 | 3.2 | 4.8 | 0.00 | 0.00 | 0.00 | 86 | 1006.1 |
| 20260504034718 | 5 | 358 | 6.4 | 9.7 | 0.00 | 0.00 | 0.00 | 87 | 1006.2 |
| 20260504032718 | 5 | 3 | 9.7 | 11.3 | 0.00 | 0.00 | 0.00 | 85 | 1006.3 |
| 20260504030718 | 5 | 348 | 9.7 | 11.3 | 0.00 | 0.00 | 0.00 | 88 | 1006.5 |
| 20260504024717 | 5 | 342 | 9.7 | 14.5 | 0.00 | 0.00 | 0.00 | 89 | 1006.6 |
| 20260504022718 | 5 | 19 | 11.3 | 14.5 | 0.00 | 0.00 | 0.00 | 80 | 1006.8 |
| 20260504020717 | 5 | 11 | 12.9 | 17.7 | 0.00 | 0.00 | 0.00 | 83 | 1006.9 |
| 20260504014718 | 5 | 350 | 14.5 | 16.1 | 0.00 | 0.00 | 0.00 | 82 | 1007.1 |
| 20260504012717 | 5 | 347 | 16.1 | 17.7 | 0.00 | 0.00 | 0.00 | 81 | 1007.3 |
| 20260504010718 | 5 | 343 | 16.1 | 19.3 | 0.00 | 0.00 | 0.00 | 80 | 1007.4 |
| 20260504004717 | 5 | 337 | 14.5 | 17.7 | 0.00 | 0.00 | 0.00 | 79 | 1007.5 |
| 20260504002719 | 5 | 334 | 14.5 | 16.1 | 0.00 | 0.00 | 0.00 | 81 | 1007.6 |
| 20260504000717 | 6 | 335 | 16.1 | 17.7 | 0.00 | 0.00 | 0.00 | 80 | 1007.6 |
| 20260503234717 | 6 | 333 | 16.1 | 17.7 | 0.00 | 0.00 | 0.00 | 80 | 1007.8 |
| 20260503232717 | 6 | 327 | 17.7 | 17.7 | 0.00 | 0.00 | 0.00 | 81 | 1007.8 |
| 20260503230717 | 6 | 329 | 16.1 | 19.3 | 0.00 | 0.00 | 0.00 | 80 | 1008.0 |
| 20260503224717 | 6 | 330 | 17.7 | 19.3 | 0.00 | 0.00 | 0.00 | 81 | 1008.0 |
| 20260503222716 | 6 | 318 | 19.3 | 20.9 | 0.00 | 0.00 | 0.00 | 82 | 1008.2 |
| 20260503220717 | 6 | 322 | 17.7 | 20.9 | 0.00 | 0.00 | 0.00 | 80 | 1008.1 |
| 20260503214716 | 6 | 318 | 16.1 | 19.3 | 0.00 | 0.00 | 0.00 | 84 | 1008.3 |
| 20260503212716 | 6 | 307 | 16.1 | 17.7 | 0.00 | 0.00 | 0.00 | 86 | 1008.5 |
| 20260503210717 | 6 | 308 | 17.7 | 17.7 | 0.00 | 0.00 | 0.00 | 85 | 1008.4 |
| 20260503204716 | 6 | 302 | 16.1 | 17.7 | 0.00 | 0.00 | 0.00 | 83 | 1008.4 |
| 20260503202716 | 6 | 307 | 16.1 | 17.7 | 0.00 | 0.00 | 0.00 | 82 | 1008.4 |
| 20260503200716 | 6 | 306 | 16.1 | 17.7 | 0.00 | 0.00 | 0.00 | 81 | 1008.4 |
| 20260503194716 | 6 | 299 | 12.9 | 16.1 | 0.00 | 0.00 | 0.00 | 83 | 1008.5 |
| 20260503192715 | 6 | 311 | 16.1 | 17.7 | 0.00 | 0.00 | 0.00 | 80 | 1008.4 |
| 20260503190715 | 7 | 309 | 17.7 | 20.9 | 0.00 | 0.00 | 0.00 | 80 | 1008.5 |
| 20260503184716 | 7 | 292 | 17.7 | 20.9 | 0.00 | 0.00 | 0.00 | 80 | 1008.6 |
| 20260503182716 | 7 | 301 | 17.7 | 20.9 | 0.00 | 0.00 | 0.00 | 80 | 1008.5 |
| 20260503180715 | 7 | 305 | 17.7 | 20.9 | 0.00 | 0.00 | 0.00 | 78 | 1008.3 |
| 20260503174716 | 7 | 309 | 19.3 | 22.5 | 0.00 | 0.00 | 0.00 | 77 | 1008.2 |
| 20260503172722 | 7 | 306 | 19.3 | 22.5 | 0.00 | 0.00 | 0.00 | 79 | 1008.3 |
| 20260503170715 | 8 | 300 | 16.1 | 20.9 | 0.00 | 0.00 | 0.00 | 75 | 1008.4 |
| 20260503150715 | 8 | 284 | 25.7 | 29.0 | 0.00 | 0.00 | 0.00 | 80 | 1008.8 |
| 20260503130714 | 7 | 258 | 20.9 | 22.5 | 0.00 | 0.00 | 0.00 | 89 | 1009.0 |
| 20260503110714 | 10 | 300 | 19.3 | 24.1 | 0.00 | 0.00 | 0.00 | 78 | 1009.0 |